Location: Cranbrook Institute of Science
(42.5830°N, 83.2450°W)
Time: 02:59:08
(UTC-05:00)

Daily predictions for brighter satellites

Satellite Brightness Start Highest point End
(mag) Time Altitude Azimuth Time Altitude Azimuth Time Altitude Azimuth
SL-16 R/B 3.0 04:57:16 46° SE 04:57:16 46° SE 05:01:19 10° SSE
SeaSat 1 4.3 04:55:09 10° NNE 04:57:03 24° NNE 04:57:03 24° NNE
Cosmos 2297 Rocket 3.6 05:05:23 29° NNE 05:05:23 29° NNE 05:08:06 10° NNE
Cosmos 968 Rocket 4.2 05:06:47 49° SE 05:07:19 51° ESE 05:12:26 10° NNE
USA 229 DEB 3.7 05:13:19 69° SW 05:13:19 69° SW 05:20:08 10° SSE
USA 229 3.7 05:13:22 70° SW 05:13:22 70° SW 05:20:14 10° SSE
Cosmos 2227 Rocket 3.8 05:18:50 22° N 05:18:50 22° N 05:20:56 10° NNE
Tsikada Rocket 4.2 05:19:15 58° SSW 05:19:15 58° SSW 05:24:16 10° S
Feng Yun 1-1 Rocket 4.1 05:20:55 10° NNE 05:26:08 80° NNW 05:26:08 80° NNW
NOSS 3-1 (A) 4.5 05:22:15 27° NNW 05:26:32 58° NE 05:34:42 10° SE
SKYMED 2 4.3 05:22:39 10° SSE 05:26:51 51° ENE 05:27:32 46° NE
Cosmos 1271 Rocket 4.4 05:23:36 10° SSE 05:27:01 32° E 05:30:25 10° NNE
NOAA 6 4.3 05:23:46 10° NNE 05:28:57 67° ESE 05:34:07 10° S
Cosmos 1340 Rocket 4.0 05:34:58 29° NNE 05:36:23 40° ENE 05:40:08 10° SSE
Cosmos 2221 4.2 05:34:27 10° SSE 05:38:22 34° E 05:42:17 10° NNE
Cosmos 1725 Rocket 4.5 05:40:50 41° NW 05:40:50 41° NW 05:45:20 10° N
SL-14 R/B 3.6 05:41:34 65° NE 05:41:48 67° E 05:45:50 10° SSE
Cosmos 1777 Rocket 4.4 05:42:34 10° S 05:47:41 61° ESE 05:52:50 10° NNE
Tiangong 2 3.6 05:53:42 15° SSE 05:54:34 16° SSE 05:56:36 10° ESE
USA 234 4.1 05:51:12 10° E 05:57:20 44° NNE 06:01:29 20° NNW
ERBS 3.0 05:59:49 45° S 05:59:49 45° S 06:02:26 10° SSE
Cosmos 1603 3.7 05:56:06 21° NNW 05:59:57 81° ENE 06:05:36 10° SSE
Cosmos 2151 2.8 05:59:21 49° NNW 06:00:25 75° W 06:04:39 10° S
Cosmos 2263 Rocket 4.5 05:56:29 10° SSE 06:01:03 25° ESE 06:05:37 10° NE
NOSS 3-1 (C) 4.0 06:01:36 24° NW 06:06:40 75° WSW 06:14:59 10° SSE
DELTA 2 R/B (1) 4.4 06:04:53 21° SW 06:08:13 44° SSE 06:13:28 10° E
COSMO-SKYMED 1 2.8 06:10:42 10° S 06:14:53 47° W 06:16:07 36° NW
Cosmos 1538 Rocket 4.3 06:13:23 30° NW 06:15:37 47° WSW 06:20:43 10° S
CZ-2C R/B 4.0 06:13:40 10° NNE 06:17:51 34° E 06:22:01 10° SSE
IDEFIX/ARIANE 42P 4.0 06:14:14 10° NNE 06:19:10 40° E 06:24:05 10° SSE
CSL-04 Rocket 3.8 06:13:52 10° NNE 06:19:11 76° ESE 06:24:27 10° S
Cosmos 1805 Rocket 3.6 06:15:49 10° N 06:20:16 79° E 06:24:38 10° S
TELKOM 3 3.6 06:21:13 49° NNE 06:21:13 49° NNE 06:23:01 10° NE
CZ-4 R/B 2.9 06:18:41 10° NNE 06:22:31 39° E 06:26:24 10° SSE
Ariane Rocket 2.9 06:17:51 10° NNE 06:22:59 83° WNW 06:28:05 10° SSW
Cosmos 923 Rocket 3.9 06:18:04 11° NNW 06:23:13 89° WSW 06:28:29 10° SSE
Genesis I 3.4 06:24:37 37° WNW 06:25:40 48° WSW 06:29:26 10° SSE
Cosmos 2233 Rocket 4.5 06:20:19 10° SW 06:26:00 36° WNW 06:31:46 10° N
SL-8 R/B 3.6 06:25:32 30° WNW 06:27:57 84° SSW 06:32:44 10° ESE
Cosmos 2227 4.2 06:25:12 10° SW 06:30:44 59° WNW 06:36:19 10° NNE
Cosmos 1680 Rocket 3.6 06:25:56 10° NNW 06:31:16 83° ENE 06:36:36 10° SSE
GPS 2-05 Rocket1 4.5 06:30:13 18° SW 06:31:38 23° S 06:34:21 10° SE
CZ-3 Stage 3 3.9 06:28:58 11° SW 06:33:03 28° S 06:46:09 10° ESE
SeaSat 1 4.0 06:33:56 10° N 06:36:52 17° NW 06:36:52 17° NW
SL-16 R/B 3.6 06:39:13 18° W 06:39:13 18° W 06:42:49 10° SW
YAOGAN 3 4.5 06:35:34 10° N 06:39:56 78° WNW 06:44:17 10° SSW
Sich 1 3.0 06:36:40 10° N 06:41:03 85° E 06:45:21 10° S
ISS -1.0 06:41:57 11° SW 06:41:57 11° SW 06:42:54 10° SSW
Cosmos 1633 Rocket 3.1 06:41:50 10° N 06:46:12 85° E 06:50:32 10° S
Coronas F rocket 1.1 06:44:28 10° N 06:46:52 75° E 06:49:15 10° SSE
PAYLOAD A 3.8 06:42:17 10° N 06:47:20 79° WNW 06:52:08 10° SSW
Cosmos 2297 Rocket 3.8 06:47:14 14° NW 06:47:29 14° NW 06:50:20 10° NNW
Cosmos 2034 Rocket 3.9 06:43:35 10° SSW 06:49:44 69° W 06:55:59 10° N
Cosmos 1328 Rocket 4.3 06:45:42 10° S 06:49:55 57° E 06:54:13 10° NNE
Nadezhda 4 Rocket 4.0 06:45:53 10° N 06:52:15 88° W 06:58:32 10° S
Cosmos 1703 3.7 06:49:35 10° NNW 06:53:17 39° W 06:56:57 10° SSW
Cosmos 389 Rocket 2.5 06:51:21 10° S 06:55:02 87° W 06:58:44 10° N
Gbstr 26 Del rocket 4.4 06:56:34 10° SW 07:01:59 63° SE 07:08:44 10° ENE
Cosmos 1626 2.6 06:58:31 10° NNW 07:02:01 38° W 07:05:30 10° SSW
Cosmos 1271 Rocket 4.2 07:00:38 10° WSW 07:03:09 17° WNW 07:05:40 10° NNW
Cosmos 2058 4.3 07:00:42 12° NW 07:03:16 19° W 07:06:13 10° SW
PSLV R/B 3.4 07:01:41 13° W 07:04:41 68° S 07:08:02 10° E
Cosmos 2344 3.8 06:57:03 10° SSW 07:04:43 81° ESE 07:13:22 10° NE
OPS 8737 4.5 07:01:50 10° SSW 07:05:11 75° ESE 07:08:21 10° NE
Cosmos 2112 Rocket 4.2 07:01:19 10° NNW 07:06:32 56° WSW 07:11:45 10° S
YAOGAN 1 2.6 07:02:59 10° NNE 07:07:20 86° E 07:11:41 10° SSW
Cosmos 1092 Rocket 4.0 07:04:42 10° N 07:11:01 87° W 07:17:14 10° S
Cosmos 1184 Rocket 3.7 07:09:13 10° NNW 07:12:07 28° W 07:15:00 10° SSW
BREEZE-M DEB (TANK) 2.9 07:09:46 11° NW 07:12:13 31° NNE 07:14:10 10° E
Cosmos 2221 3.8 07:12:48 10° WSW 07:16:02 20° WNW 07:19:17 10° NNW
Cosmos 1666 Rocket 4.3 07:15:01 10° NNW 07:19:04 34° W 07:23:05 10° SSW
Cosmos 1943 3.5 07:15:18 10° NW 07:20:46 49° WSW 07:26:12 10° S
Cosmos 1484 Rocket 3.1 07:17:42 10° NNE 07:21:45 76° ESE 07:25:42 10° S
SMAP 3.2 07:20:45 10° N 07:25:19 55° WNW 07:29:51 10° SSW
ATLAS 2AS CENTAUR R/B 3.1 07:18:29 10° NW 07:26:37 88° NE 07:34:10 10° SE
APEX 2.9 07:23:54 10° SW 07:27:42 62° WNW 07:30:48 10° NNE
CORIOLIS 4.2 07:23:24 10° N 07:28:48 71° WNW 07:34:12 10° SSW
Helios 1B rocket 2.6 07:25:05 10° S 07:29:06 55° W 07:33:09 10° NNW
Cosmos 192 4.4 07:25:21 10° NNW 07:30:20 77° WSW 07:35:16 10° SSE
Cosmos 1933 Rocket 3.6 07:26:19 10° NNW 07:30:46 70° W 07:35:08 10° S
